Townsville Observation History
Time Wind Speed Temp Pressure Rel. Hum Rain
05/10:00pm ESE 8-10 kts 21.4°c 1020.8 hPa 75% n/a
05/09:30pm ESE 10-13 kts 21.7°c 1020.9 hPa 71% n/a
05/09:00pm ESE 12-17 kts 21.9°c 1020.8 hPa 70% n/a
05/08:30pm ESE 14-20 kts 22.0°c 1020.8 hPa 70% n/a
05/08:00pm ESE 12-17 kts 22.5°c 1020.5 hPa 70% n/a
05/07:30pm ESE 10-14 kts 22.5°c 1020.2 hPa 69% n/a
05/07:00pm ESE 9-12 kts 22.4°c 1019.9 hPa 69% n/a
05/06:30pm ESE 9-13 kts 22.7°c 1019.5 hPa 71% n/a
05/06:00pm ESE 12-16 kts 23.1°c 1019.3 hPa 70% n/a
05/05:30pm E 9-12 kts 23.2°c 1019.0 hPa 71% 0.0mm
05/05:00pm ESE 11-14 kts 24.3°c 1018.7 hPa 64% 0.0mm
05/04:30pm ESE 13-17 kts 24.3°c 1018.7 hPa 64% 0.0mm
05/04:00pm ESE 11-16 kts 25.1°c 1018.4 hPa 64% 0.0mm
05/03:30pm ESE 11-15 kts 24.9°c 1018.3 hPa 66% 0.0mm
05/03:00pm ESE 11-15 kts 25.3°c 1018.3 hPa 64% 0.0mm
05/02:30pm ESE 13-19 kts 25.2°c 1018.3 hPa 63% 0.0mm
05/02:00pm ESE 13-17 kts 25.4°c 1018.5 hPa 62% 0.0mm
05/01:30pm ESE 16-20 kts 25.8°c 1018.8 hPa 64% 0.0mm
05/01:00pm E 15-21 kts 26.9°c 1019.1 hPa 59% 0.0mm
05/12:30pm ESE 17-22 kts 26.1°c 1019.4 hPa 63% 0.0mm
05/12:00pm ESE 17-24 kts 25.2°c 1019.8 hPa 64% 0.0mm
05/11:30am ESE 15-20 kts 24.8°c 1020.2 hPa 65% 0.0mm
05/11:00am ESE 17-21 kts 24.9°c 1020.5 hPa 66% 0.0mm
05/10:30am ESE 17-26 kts 24.7°c 1020.7 hPa 65% 0.0mm
05/10:00am ESE 15-20 kts 24.7°c 1020.9 hPa 65% 0.0mm
05/09:30am SE 11-15 kts 24.2°c 1020.9 hPa 67% 0.0mm
05/09:00am SSE 10-13 kts 23.5°c 1021.1 hPa 69% 0.0mm
05/08:30am SE 9-15 kts 22.2°c 1020.8 hPa 71% 0.0mm
05/08:00am SSE 8-12 kts 21.5°c 1020.4 hPa 76% 0.0mm
05/07:30am SSE 9-12 kts 20.6°c 1020.0 hPa 79% 0.0mm
05/07:00am SE 9-12 kts 20.2°c 1019.8 hPa 81% 0.0mm
05/06:30am SE 6-8 kts 19.8°c 1019.3 hPa 83% 0.0mm
05/06:00am SE 7-8 kts 19.6°c 1019.1 hPa 84% 0.0mm
05/05:30am SE 7-9 kts 20.0°c 1018.7 hPa 82% 0.0mm
05/05:00am SE 7-9 kts 20.2°c 1018.6 hPa 80% 0.0mm
05/04:30am SE 8-11 kts 20.5°c 1018.6 hPa 79% 0.0mm
05/04:00am SSE 8-11 kts 20.6°c 1018.6 hPa 79% 0.0mm
05/03:30am SE 5-7 kts 20.5°c 1018.6 hPa 78% 0.0mm
05/03:00am SE 7-11 kts 20.7°c 1018.8 hPa 76% 0.0mm
05/02:30am SSE 10-15 kts 20.8°c 1018.9 hPa 75% 0.0mm
05/02:00am SSE 8-10 kts 20.3°c 1019.3 hPa 78% 0.0mm
05/01:30am SE 6-9 kts 19.9°c 1019.8 hPa 78% 0.0mm
05/01:00am S 5-6 kts 19.2°c 1020.2 hPa 79% 0.0mm
05/12:30am SSE 4-5 kts 19.6°c 1020.5 hPa 77% 0.0mm
05/12:00am SE 5-7 kts 20.0°c 1020.7 hPa 75% 0.0mm
Time Wind Speed Temp Pressure Rel. Hum Rain
04/11:30pm SE 5-7 kts 20.3°c 1021.1 hPa 75% 0.0mm
04/11:00pm SE 7-10 kts 19.5°c 1021.6 hPa 73% 0.0mm
04/10:30pm SE 7-9 kts 19.2°c 1021.8 hPa 73% 0.0mm
04/10:00pm SSE 9-10 kts 19.7°c 1021.9 hPa 71% 0.0mm
04/09:30pm SSE 7-9 kts 18.7°c 1022.0 hPa 75% 0.0mm
04/09:00pm SE 6-7 kts 18.7°c 1022.1 hPa 73% 0.0mm
04/08:30pm SE 6-7 kts 18.8°c 1022.1 hPa 72% 0.0mm
04/08:00pm ESE 6-7 kts 19.3°c 1021.9 hPa 69% 0.0mm
04/07:30pm SE 6-7 kts 19.9°c 1021.9 hPa 67% 0.0mm
04/07:00pm SE 7-8 kts 20.4°c 1021.5 hPa 65% 0.0mm
04/06:30pm SE 7-9 kts 20.9°c 1021.0 hPa 62% 0.0mm
04/06:00pm ESE 10-16 kts 22.2°c 1020.6 hPa 57% 0.0mm
04/05:30pm E 11-16 kts 22.5°c 1020.2 hPa 60% 0.0mm
04/05:00pm E 13-18 kts 23.0°c 1019.9 hPa 58% 0.0mm
04/04:30pm ESE 13-17 kts 23.3°c 1019.8 hPa 59% 0.0mm
04/04:00pm ESE 12-15 kts 23.8°c 1019.6 hPa 56% 0.0mm
04/03:30pm ESE 14-18 kts 24.1°c 1019.5 hPa 59% 0.0mm
04/03:00pm ESE 11-17 kts 24.5°c 1019.5 hPa 50% 0.0mm
04/02:30pm ESE 14-22 kts 24.2°c 1019.5 hPa 48% 0.0mm
04/02:00pm SE 12-18 kts 24.3°c 1019.8 hPa 47% 0.0mm
04/01:30pm ESE 11-16 kts 23.9°c 1020.1 hPa 46% 0.0mm
04/01:00pm ESE 11-18 kts 24.5°c 1020.5 hPa 47% 0.0mm
04/12:30pm SSE 9-13 kts 23.2°c 1021.1 hPa 46% 0.0mm
04/12:00pm SE 9-13 kts 22.6°c 1021.6 hPa 47% 0.0mm
04/11:30am SE 9-14 kts 22.4°c 1022.1 hPa 47% 0.0mm
04/11:00am SSE 9-13 kts 22.0°c 1022.4 hPa 46% 0.0mm
04/10:30am SSE 9-14 kts 21.8°c 1022.6 hPa 48% 0.0mm
04/10:00am SSE 9-14 kts 20.7°c 1022.6 hPa 44% 0.0mm
04/09:30am SSE 6-7 kts 19.9°c 1022.5 hPa 44% 0.0mm
04/09:00am SSW 5-7 kts 18.6°c 1022.7 hPa 43% 0.0mm
04/08:30am S 5-6 kts 17.4°c 1022.4 hPa 43% 0.0mm
04/08:00am SSE 4-6 kts 15.5°c 1021.8 hPa 56% 0.0mm
04/07:30am SSE 5-6 kts 13.3°c 1021.6 hPa 69% 0.0mm
04/07:00am SE 4-5 kts 12.4°c 1021.1 hPa 63% 0.0mm
04/06:30am S 6-7 kts 12.7°c 1020.6 hPa 63% 0.0mm
04/06:00am SSE 6 kts 12.0°c 1020.3 hPa 64% 0.0mm
04/05:30am SSE 5-7 kts 12.7°c 1020.2 hPa 62% 0.0mm
04/05:00am SSE 5 kts 11.8°c 1020.0 hPa 70% 0.0mm
04/04:30am SE 5-6 kts 12.8°c 1020.1 hPa 70% 0.0mm
04/04:00am SSE 1-5 kts 12.6°c 1020.1 hPa 82% 0.0mm
04/03:30am SSE 3-4 kts 12.3°c 1020.0 hPa 84% 0.0mm
04/03:00am SSE 1-4 kts 11.5°c 1020.1 hPa 87% 0.0mm
04/02:30am CALM 0 kts 12.3°c 1020.3 hPa 87% 0.0mm
04/02:00am CALM 0 kts 12.4°c 1020.4 hPa 87% 0.0mm
04/01:30am SSE 5-6 kts 13.9°c 1020.6 hPa 73% 0.0mm
04/01:00am SSE 7 kts 13.6°c 1020.6 hPa 75% 0.0mm
04/12:30am SSE 6-7 kts 13.8°c 1020.9 hPa 75% 0.0mm
04/12:00am S 5-6 kts 15.4°c 1021.1 hPa 66% 0.0mm
Time Wind Speed Temp Pressure Rel. Hum Rain
03/11:30pm S 6-7 kts 15.6°c 1021.3 hPa 65% 0.0mm
03/11:00pm S 4-5 kts 16.4°c 1021.4 hPa 63% 0.0mm
03/10:30pm SSW 5-6 kts 16.8°c 1021.4 hPa 58% 0.0mm
03/10:00pm SSE 6 kts 15.2°c 1021.3 hPa 74% 0.0mm
03/09:30pm SSE 6 kts 17.0°c 1021.5 hPa 66% 0.0mm
03/09:00pm SE 7 kts 17.1°c 1021.3 hPa 65% 0.0mm
03/08:30pm SSE 6-7 kts 17.7°c 1021.1 hPa 65% 0.0mm
03/08:00pm SSE 6-7 kts 18.7°c 1020.8 hPa 64% 0.0mm
03/07:30pm SE 6-7 kts 18.9°c 1020.6 hPa 64% 0.0mm
03/07:00pm ESE 9-13 kts 20.4°c 1020.1 hPa 58% 0.0mm
03/06:30pm ESE 9-12 kts 20.2°c 1019.5 hPa 63% 0.0mm
03/06:00pm ESE 9-13 kts 20.8°c 1019.3 hPa 60% 0.0mm
03/05:30pm E 9-13 kts 21.8°c 1018.9 hPa 52% 0.0mm
03/05:00pm E 8-10 kts 23.0°c 1018.6 hPa 49% 0.0mm
03/04:30pm NE 11-14 kts 23.3°c 1018.5 hPa 56% 0.0mm
03/04:00pm ENE 12-15 kts 23.3°c 1018.4 hPa 54% 0.0mm
03/03:30pm NE 14-17 kts 24.0°c 1018.2 hPa 54% 0.0mm
03/03:00pm ENE 9-15 kts 24.6°c 1018.2 hPa 52% 0.0mm
03/02:30pm ESE 8-11 kts 25.6°c 1018.3 hPa 29% 0.0mm
03/02:00pm SE 9-31 kts 25.8°c 1018.5 hPa 37% 0.0mm
03/01:53pm ENE 12-31 kts 25.3°c 1018.6 hPa 35% 0.0mm
03/01:30pm ENE 14-17 kts 25.0°c 1018.7 hPa 39% 0.0mm
03/01:00pm ENE 11-14 kts 25.2°c 1019.2 hPa 36% 0.0mm
03/12:30pm ESE 6-15 kts 25.3°c 1019.8 hPa 38% 0.0mm
03/12:00pm SE 5-7 kts 24.4°c 1020.3 hPa 38% 0.0mm
03/11:30am ESE 3-6 kts 24.4°c 1020.7 hPa 39% 0.0mm
03/11:00am SE 5-11 kts 23.9°c 1020.9 hPa 39% 0.0mm
03/10:30am SSE 6-9 kts 23.8°c 1021.2 hPa 45% 0.0mm
03/10:00am SSW 5-7 kts 22.9°c 1021.3 hPa 42% 0.0mm
03/09:30am SSW 3-6 kts 22.6°c 1021.4 hPa 44% 0.0mm
03/09:00am SSW 5-7 kts 21.5°c 1021.4 hPa 51% 0.0mm
03/08:30am CALM 0-3 kts 20.6°c 1021.2 hPa 53% 0.0mm
03/08:00am WSW 4 kts 19.2°c 1020.8 hPa 65% 0.0mm
03/07:30am SSW 1-4 kts 17.6°c 1020.5 hPa 67% 0.0mm
03/07:00am S 1-5 kts 16.0°c 1020.2 hPa 75% 0.0mm
03/06:30am S 2-4 kts 15.2°c 1019.7 hPa 81% 0.0mm
03/06:00am CALM 0-3 kts 15.6°c 1019.3 hPa 86% 0.0mm
03/05:30am S 5-6 kts 16.5°c 1019.3 hPa 79% 0.0mm
03/05:00am WSW 1-4 kts 17.0°c 1019.1 hPa 80% 0.0mm
03/04:30am S 9-11 kts 18.5°c 1018.8 hPa 71% 0.0mm
03/04:00am SE 9-10 kts 18.7°c 1018.5 hPa 81% 0.0mm
03/03:30am SSE 6-7 kts 17.2°c 1018.6 hPa 89% 0.0mm
03/03:00am SE 6 kts 17.7°c 1018.6 hPa 85% 0.0mm
03/02:30am SE 5-6 kts 18.0°c 1018.8 hPa 80% 0.0mm
03/02:00am SE 4 kts 18.3°c 1018.9 hPa 75% 0.0mm
03/01:30am SE 5 kts 18.2°c 1019.2 hPa 71% 0.0mm
03/01:00am SSE 6-7 kts 17.9°c 1019.3 hPa 75% 0.0mm
03/12:30am SE 6-7 kts 17.7°c 1019.4 hPa 75% 0.0mm
03/12:00am SSE 5 kts 18.0°c 1019.5 hPa 71% 0.0mm